Time,TemperatureF,DewpointF,PressureIn,WindDirection,WindDirectionDegrees,WindSpeedMPH,WindSpeedGustMPH,Humidity,HourlyPrecipIn,Conditions,Clouds,dailyrainin,SoftwareType,DateUTC
2013-01-12 09:40:00,38.0,14.0,-100.00,East,96,13.0,20.0,37,-99.99,,,-99.99,,2013-01-12 17:40:00,
2013-01-12 10:22:00,38.0,14.0,-100.00,East,96,13.0,20.0,37,-99.99,,,-99.99,,2013-01-12 18:22:00,
2013-01-12 10:33:00,38.0,14.0,-100.00,East,96,13.0,20.0,37,-99.99,,,-99.99,,2013-01-12 18:33:00,
2013-01-12 13:50:00,40.0,16.0,-100.00,WNW,299,6.0,21.0,38,-99.99,,,-99.99,,2013-01-12 21:50:00,
2013-01-12 14:02:00,39.0,16.0,-100.00,NW,311,8.0,11.0,39,-99.99,,,-99.99,,2013-01-12 22:02:00,
2013-01-12 14:12:00,39.0,16.0,-100.00,NW,311,8.0,11.0,39,-99.99,,,-99.99,,2013-01-12 22:12:00,
2013-01-12 14:22:00,40.0,16.0,-100.00,WNW,299,6.0,21.0,38,-99.99,,,-99.99,,2013-01-12 22:22:00,
2013-01-12 14:32:00,40.0,16.0,-100.00,WNW,299,6.0,21.0,38,-99.99,,,-99.99,,2013-01-12 22:32:00,
2013-01-12 14:43:00,40.0,16.0,-100.00,WNW,299,6.0,21.0,38,-99.99,,,-99.99,,2013-01-12 22:43:00,
2013-01-12 17:50:00,34.0,19.0,-100.00,NW,322,2.0,4.0,54,-99.99,,,-99.99,,2013-01-13 01:50:00,
2013-01-12 17:52:00,35.0,19.0,-100.00,NW,304,6.0,9.0,52,-99.99,,,-99.99,,2013-01-13 01:52:00,
2013-01-12 18:02:00,35.0,19.0,-100.00,NW,304,6.0,9.0,52,-99.99,,,-99.99,,2013-01-13 02:02:00,
2013-01-12 18:12:00,34.0,19.0,-100.00,WNW,303,3.0,4.0,54,-99.99,,,-99.99,,2013-01-13 02:12:00,
2013-01-12 18:22:00,34.0,19.0,-100.00,NW,322,2.0,4.0,54,-99.99,,,-99.99,,2013-01-13 02:22:00,
2013-01-12 18:32:00,34.0,19.0,-100.00,NW,322,2.0,4.0,54,-99.99,,,-99.99,,2013-01-13 02:32:00,
2013-01-12 18:42:00,34.0,19.0,-100.00,NW,322,2.0,4.0,54,-99.99,,,-99.99,,2013-01-13 02:42:00,
2013-01-12 19:10:00,30.0,20.0,-100.00,SE,132,4.0,5.0,65,-99.99,,,-99.99,,2013-01-13 03:10:00,
2013-01-12 19:12:00,32.0,20.0,-100.00,ESE,114,2.0,4.0,60,-99.99,,,-99.99,,2013-01-13 03:12:00,
2013-01-12 19:22:00,32.0,20.0,-100.00,ESE,114,2.0,4.0,60,-99.99,,,-99.99,,2013-01-13 03:22:00,
2013-01-12 19:32:00,30.0,20.0,-100.00,SE,132,4.0,5.0,65,-99.99,,,-99.99,,2013-01-13 03:32:00,
2013-01-12 19:42:00,30.0,20.0,-100.00,SE,132,4.0,5.0,65,-99.99,,,-99.99,,2013-01-13 03:42:00,
2013-01-12 19:52:00,30.0,20.0,-100.00,SE,132,4.0,5.0,65,-99.99,,,-99.99,,2013-01-13 03:52:00,
2013-01-12 20:02:00,30.0,20.0,-100.00,SE,132,4.0,5.0,65,-99.99,,,-99.99,,2013-01-13 04:02:00,
2013-01-12 21:10:00,27.0,20.0,-100.00,SE,137,5.0,7.0,75,-99.99,,,-99.99,,2013-01-13 05:10:00,
2013-01-12 21:22:00,27.0,20.0,-100.00,SE,139,5.0,8.0,76,-99.99,,,-99.99,,2013-01-13 05:22:00,
2013-01-12 21:32:00,27.0,20.0,-100.00,SE,137,5.0,7.0,75,-99.99,,,-99.99,,2013-01-13 05:32:00,
2013-01-12 21:42:00,27.0,20.0,-100.00,SE,137,5.0,7.0,75,-99.99,,,-99.99,,2013-01-13 05:42:00,
2013-01-12 21:52:00,27.0,20.0,-100.00,SE,137,5.0,7.0,75,-99.99,,,-99.99,,2013-01-13 05:52:00,
2013-01-12 22:02:00,27.0,20.0,-100.00,SE,137,5.0,7.0,75,-99.99,,,-99.99,,2013-01-13 06:02:00,